Tracking 19146 objects as of 23-Apr-2018
HD Live streaming from Space Station
objects crossing your sky now

METEOR 1-27

Track METEOR 1-27 now!
10-day predictions
METEOR 1-27 is classified as:


NORAD ID: 9903
Int'l Code: 1977-024A
Perigee: 844.9 km
Apogee: 899.9 km
Inclination: 81.3 °
Period: 102.3 minutes
Semi major axis: 7243 km
RCS: 4.395 m2 (large)
Launch date: April 5, 1977
Source: Commonwealth of Independent States (former USSR) (CIS)
Launch site: PLESETSK MISSILE AND SPACE COMPLEX (PKMTR)
aabbcc
Your satellite tracking list
Your tracking list is empty




NASA's NSSDC Master Catalog

Two Line Element Set (TLE):
1  9903U 77024A   18112.56075023 +.00000011 +00000-0 -12673-5 0  9999
2  9903 081.2584 142.1920 0037926 130.6936 229.7539 14.08279486108426
Source of the keplerian elements: AFSPC